�������l�o���
Date,Time,MP-1(��Sv/h),MP-2(��Sv/h),MP-3(��Sv/h),MP-4(��Sv/h),MP-5(��Sv/h),MP-6(��Sv/h),MP-7(��Sv/h),����,����(m/s),���J
2014/03/06,00:00,0.7,0.5,0.8,0.7,0.7,0.3,0.3,�k,6.2,��
2014/03/06,00:10,0.7,0.5,0.8,0.7,0.7,0.3,0.3,�k�k��,6.1,��
2014/03/06,00:20,0.7,0.5,0.8,0.7,0.7,0.3,0.3,�k�k��,8.1,��
2014/03/06,00:30,0.7,0.5,0.8,0.7,0.7,0.3,0.3,�k�k��,7.4,��
2014/03/06,00:40,0.7,0.5,0.8,0.7,0.7,0.3,0.3,�k�k��,7.5,��
2014/03/06,00:50,0.7,0.5,0.8,0.7,0.7,0.3,0.3,�k�k��,7.0,��
2014/03/06,01:00,0.7,0.5,0.8,0.7,0.7,0.3,0.3,�k�k��,8.8,��
2014/03/06,01:10,0.7,0.5,0.8,0.7,0.7,0.3,0.3,�k�k��,8.5,��
2014/03/06,01:20,0.7,0.5,0.8,0.7,0.7,0.3,0.3,�k�k��,10.1,��
2014/03/06,01:30,0.7,0.5,0.8,0.7,0.7,0.3,0.3,�k�k��,10.6,��
2014/03/06,01:40,0.7,0.5,0.8,0.7,0.7,0.3,0.3,�k�k��,10.4,��
2014/03/06,01:50,0.7,0.5,0.8,0.7,0.7,0.3,0.3,�k��,9.8,��
2014/03/06,02:00,0.7,0.5,0.8,0.7,0.7,0.3,0.3,�k�k��,10.7,��
2014/03/06,02:10,0.7,0.5,0.8,0.7,0.7,0.3,0.3,�k��,12.1,��
2014/03/06,02:20,0.7,0.5,0.8,0.7,0.7,0.3,0.3,�k�k��,12.7,��
2014/03/06,02:30,0.7,0.5,0.8,0.7,0.7,0.3,0.3,�k��,9.7,��
2014/03/06,02:40,0.7,0.5,0.8,0.7,0.7,0.3,0.3,�k�k��,11.6,��
2014/03/06,02:50,0.7,0.5,0.8,0.7,0.7,0.3,0.3,�k�k��,11.6,��
2014/03/06,03:00,0.7,0.5,0.8,0.7,0.7,0.3,0.3,�k�k��,10.5,��
2014/03/06,03:10,0.7,0.5,0.8,0.7,0.7,0.3,0.3,�k�k��,6.6,��
2014/03/06,03:20,0.7,0.5,0.8,0.7,0.7,0.3,0.3,�k�k��,6.7,��
2014/03/06,03:30,0.7,0.5,0.8,0.7,0.7,0.3,0.3,�k�k��,7.8,��
2014/03/06,03:40,0.7,0.5,0.8,0.7,0.7,0.3,0.3,�k�k��,8.1,��
2014/03/06,03:50,0.7,0.5,0.8,0.7,0.7,0.3,0.3,�k�k��,8.4,��
2014/03/06,04:00,0.7,0.5,0.8,0.7,0.7,0.3,0.3,�k�k��,7.2,��
2014/03/06,04:10,0.7,0.5,0.8,0.7,0.7,0.3,0.3,�k�k��,8.9,��
2014/03/06,04:20,0.7,0.5,0.8,0.7,0.7,0.3,0.3,�k,9.8,��
2014/03/06,04:30,0.7,0.5,0.8,0.7,0.7,0.3,0.3,�k,10.4,��
2014/03/06,04:40,0.7,0.5,0.8,0.7,0.7,0.3,0.3,�k,8.3,��
2014/03/06,04:50,0.7,0.5,0.8,0.7,0.7,0.3,0.3,�k�k��,4.9,��
2014/03/06,05:00,0.7,0.5,0.8,0.7,0.7,0.3,0.3,�k,6.3,��
2014/03/06,05:10,0.7,0.5,0.8,0.7,0.7,0.3,0.3,�k,9.6,��
2014/03/06,05:20,0.7,0.5,0.8,0.7,0.7,0.3,0.3,�k,8.8,��
2014/03/06,05:30,0.7,0.5,0.8,0.7,0.7,0.3,0.3,�k,7.5,��
2014/03/06,05:40,0.7,0.5,0.8,0.7,0.7,0.3,0.3,�k�k��,11.0,��
2014/03/06,05:50,0.7,0.5,0.8,0.7,0.7,0.3,0.3,�k,10.0,��
2014/03/06,06:00,0.7,0.5,0.8,0.7,0.7,0.3,0.3,�k�k��,7.5,��
2014/03/06,06:10,0.7,0.5,0.8,0.7,0.7,0.3,0.3,�k,8.9,��
2014/03/06,06:20,0.7,0.5,0.8,0.7,0.7,0.3,0.3,�k,7.8,��
2014/03/06,06:30,0.7,0.5,0.8,0.7,0.7,0.3,0.3,�k,5.0,��
2014/03/06,06:40,0.7,0.5,0.8,0.7,0.7,0.3,0.3,�k�k��,5.6,��
2014/03/06,06:50,0.7,0.5,0.8,0.7,0.7,0.3,0.3,�k,3.0,��
2014/03/06,07:00,0.7,0.5,0.8,0.7,0.7,0.3,0.3,�k,3.3,��
2014/03/06,07:10,0.7,0.5,0.8,0.7,0.7,0.3,0.3,�k,5.7,��
2014/03/06,07:20,0.7,0.5,0.8,0.7,0.7,0.3,0.3,�k,6.3,��
2014/03/06,07:30,0.7,0.5,0.8,0.7,0.7,0.3,0.3,�k,5.3,��
2014/03/06,07:40,0.7,0.5,0.8,0.7,0.7,0.3,0.3,�k,4.9,��
2014/03/06,07:50,0.7,0.5,0.8,0.7,0.7,0.3,0.3,�k�k��,6.2,��
2014/03/06,08:00,0.7,0.5,0.8,0.7,0.7,0.3,0.3,�k�k��,6.0,��
2014/03/06,08:10,0.7,0.5,0.8,0.7,0.7,0.3,0.3,�k�k��,4.2,��
2014/03/06,08:20,0.7,0.5,0.8,0.7,0.7,0.3,0.3,�k�k��,1.8,��
2014/03/06,08:30,0.7,0.5,0.8,0.7,0.7,0.3,0.3,�k��,2.5,��
2014/03/06,08:40,0.7,0.5,0.8,0.7,0.7,0.3,0.3,�k,1.4,��
2014/03/06,08:50,0.7,0.5,0.8,0.7,0.7,0.3,0.3,�k�k��,2.5,��
2014/03/06,09:00,0.7,0.5,0.8,0.7,0.7,0.3,0.3,�k�k��,1.2,��
2014/03/06,09:10,0.7,0.5,0.8,0.7,0.7,0.3,0.3,���k��,0.7,��
2014/03/06,09:20,0.7,0.5,0.8,0.7,0.7,0.3,0.3,�쐼,0.7,��
2014/03/06,09:30,0.7,0.5,0.8,0.7,0.7,0.3,0.3,��,1.0,��
2014/03/06,09:40,0.7,0.5,0.8,0.7,0.7,0.3,0.3,�k��,1.3,��
2014/03/06,09:50,0.7,0.5,0.8,0.7,0.7,0.3,0.3,�k,6.3,��
2014/03/06,10:00,0.7,0.5,0.8,0.7,0.7,0.3,0.3,�k,2.8,��
2014/03/06,10:10,0.7,0.5,0.8,0.7,0.7,0.3,0.3,-,CALM,��
2014/03/06,10:20,0.7,0.5,0.8,0.7,0.7,0.3,0.3,-,CALM,��
2014/03/06,10:30,0.7,0.5,0.8,0.7,0.7,0.3,0.3,-,CALM,��
2014/03/06,10:40,0.7,0.5,0.8,0.7,0.7,0.3,0.3,-,CALM,��
2014/03/06,10:50,0.7,0.5,0.8,0.7,0.7,0.3,0.3,-,CALM,��
2014/03/06,11:00,0.7,0.5,0.8,0.7,0.7,0.3,0.3,-,CALM,��
2014/03/06,11:10,0.7,0.5,0.8,0.7,0.7,0.3,0.3,-,CALM,��
2014/03/06,11:20,0.7,0.5,0.8,0.7,0.7,0.3,0.3,-,CALM,��
2014/03/06,11:30,0.7,0.5,0.8,0.7,0.7,0.3,0.3,-,CALM,��
2014/03/06,11:40,0.7,0.5,0.8,0.7,0.7,0.3,0.3,-,CALM,��
2014/03/06,11:50,0.7,0.5,0.8,0.7,0.7,0.3,0.3,-,CALM,��
2014/03/06,12:00,0.7,0.5,0.8,0.7,0.7,0.3,0.3,-,CALM,��
2014/03/06,12:10,0.7,0.5,0.8,0.7,0.7,0.3,0.3,-,CALM,��
2014/03/06,12:20,0.7,0.5,0.8,0.7,0.7,0.3,0.3,-,CALM,��
2014/03/06,12:30,0.7,0.5,0.8,0.7,0.7,0.3,0.3,-,CALM,��
2014/03/06,12:40,0.7,0.5,0.8,0.7,0.7,0.3,0.3,-,CALM,��
2014/03/06,12:50,0.8,0.5,0.8,0.7,0.7,0.3,0.3,-,CALM,��
2014/03/06,13:00,0.7,0.5,0.8,0.7,0.7,0.3,0.3,-,CALM,��
2014/03/06,13:10,0.8,0.5,0.8,0.7,0.7,0.3,0.3,-,CALM,��
2014/03/06,13:20,0.8,0.5,0.8,0.7,0.7,0.3,0.3,-,CALM,��
2014/03/06,13:30,0.8,0.5,0.8,0.7,0.7,0.3,0.3,-,CALM,��
2014/03/06,13:40,0.8,0.5,0.8,0.7,0.7,0.3,0.3,-,CALM,��
2014/03/06,13:50,0.8,0.5,0.8,0.7,0.7,0.3,0.3,-,CALM,�L
2014/03/06,14:00,0.8,0.5,0.8,0.7,0.7,0.3,0.3,-,CALM,��
2014/03/06,14:10,0.8,0.5,0.8,0.7,0.7,0.3,0.3,-,CALM,��
2014/03/06,14:20,0.7,0.5,0.8,0.7,0.7,0.3,0.3,-,CALM,��
2014/03/06,14:30,0.7,0.5,0.8,0.7,0.7,0.3,0.3,-,CALM,�L
2014/03/06,14:40,0.8,0.5,0.8,0.7,0.7,0.3,0.3,-,CALM,�L
2014/03/06,14:50,0.8,0.5,0.8,0.7,0.7,0.3,0.3,-,CALM,��
2014/03/06,15:00,0.7,0.5,0.8,0.7,0.7,0.3,0.3,-,CALM,��
2014/03/06,15:10,0.7,0.5,0.8,0.7,0.7,0.3,0.3,�k�k��,5.8,��
2014/03/06,15:20,0.7,0.5,0.8,0.7,0.7,0.3,0.3,�k�k��,5.0,��
2014/03/06,15:30,0.8,0.5,0.8,0.7,0.7,0.3,0.3,�k��,4.7,��
2014/03/06,15:40,0.7,0.5,0.8,0.7,0.7,0.3,0.3,�k�k��,6.1,��
2014/03/06,15:50,0.7,0.5,0.8,0.7,0.7,0.3,0.3,�k��,4.5,��
2014/03/06,16:00,0.8,0.5,0.8,0.7,0.7,0.3,0.3,�k��,3.6,��
2014/03/06,16:10,0.7,0.5,0.8,0.7,0.7,0.3,0.3,�k��,2.1,��
2014/03/06,16:20,0.7,0.5,0.8,0.7,0.7,0.3,0.3,���k��,2.2,��
2014/03/06,16:30,0.7,0.5,0.8,0.7,0.7,0.3,0.3,���k��,4.2,��
2014/03/06,16:40,0.8,0.5,0.8,0.7,0.7,0.3,0.3,��,4.8,��
2014/03/06,16:50,0.7,0.5,0.8,0.7,0.7,0.3,0.3,��,6.0,��
2014/03/06,17:00,0.7,0.5,0.8,0.7,0.7,0.3,0.3,��,1.4,��
2014/03/06,17:10,0.7,0.5,0.8,0.7,0.7,0.3,0.3,-,CALM,��
2014/03/06,17:20,0.8,0.5,0.8,0.7,0.7,0.3,0.3,-,CALM,��
2014/03/06,17:30,0.7,0.5,0.8,0.7,0.7,0.3,0.3,-,CALM,��
2014/03/06,17:40,0.8,0.5,0.8,0.7,0.7,0.3,0.3,��,0.5,��
2014/03/06,17:50,0.8,0.5,0.8,0.7,0.7,0.3,0.3,�k,0.6,��
2014/03/06,18:00,0.7,0.5,0.8,0.7,0.7,0.3,0.3,-,CALM,��
2014/03/06,18:10,0.7,0.5,0.8,0.7,0.7,0.3,0.3,��쐼,1.0,��
2014/03/06,18:20,0.7,0.5,0.8,0.7,0.7,0.3,0.3,��,1.3,��
2014/03/06,18:30,0.7,0.5,0.8,0.7,0.7,0.3,0.3,��쐼,1.8,��
2014/03/06,18:40,0.7,0.5,0.8,0.7,0.7,0.3,0.3,�쐼,1.7,��
2014/03/06,18:50,0.8,0.5,0.8,0.7,0.7,0.3,0.3,��쐼,3.0,��
2014/03/06,19:00,0.7,0.5,0.8,0.7,0.7,0.3,0.3,��쐼,3.4,��
2014/03/06,19:10,0.7,0.5,0.8,0.7,0.7,0.3,0.3,��쐼,2.5,��
2014/03/06,19:20,0.7,0.5,0.8,0.7,0.7,0.3,0.3,��쐼,3.1,��
2014/03/06,19:30,0.7,0.5,0.8,0.7,0.7,0.3,0.3,��쐼,4.3,��
2014/03/06,19:40,0.7,0.5,0.8,0.7,0.7,0.3,0.3,��쐼,4.2,��
2014/03/06,19:50,0.7,0.5,0.8,0.7,0.7,0.3,0.3,�쐼,5.1,��
2014/03/06,20:00,0.7,0.5,0.8,0.7,0.7,0.3,0.3,�쐼,5.4,��
2014/03/06,20:10,0.7,0.5,0.8,0.7,0.7,0.3,0.3,�쐼,2.9,��
2014/03/06,20:20,0.7,0.5,0.8,0.7,0.7,0.3,0.3,��쐼,4.1,��
2014/03/06,20:30,0.7,0.5,0.8,0.7,0.7,0.3,0.3,�쐼,4.3,��
2014/03/06,20:40,0.8,0.5,0.8,0.7,0.7,0.3,0.3,��쐼,4.6,��
2014/03/06,20:50,0.7,0.5,0.8,0.7,0.7,0.3,0.3,��쐼,3.8,��
2014/03/06,21:00,0.7,0.5,0.8,0.7,0.7,0.3,0.3,�쐼,2.9,��
2014/03/06,21:10,0.7,0.5,0.8,0.7,0.7,0.3,0.3,���쐼,2.4,��
2014/03/06,21:20,0.7,0.5,0.8,0.7,0.7,0.3,0.3,��,4.5,��
2014/03/06,21:30,0.8,0.5,0.8,0.7,0.7,0.3,0.3,���쐼,3.4,��
2014/03/06,21:40,0.7,0.5,0.8,0.7,0.7,0.3,0.3,���쐼,5.8,��
2014/03/06,21:50,0.8,0.5,0.8,0.7,0.7,0.3,0.3,��,4.8,��
2014/03/06,22:00,0.7,0.5,0.8,0.7,0.7,0.3,0.3,��,6.5,��
2014/03/06,22:10,0.7,0.5,0.8,0.7,0.7,0.3,0.3,���k��,6.1,��
2014/03/06,22:20,0.7,0.5,0.8,0.7,0.7,0.3,0.3,���k��,6.1,��
2014/03/06,22:30,0.7,0.5,0.8,0.7,0.7,0.3,0.3,���k��,8.7,��
2014/03/06,22:40,0.7,0.5,0.8,0.7,0.7,0.3,0.3,��,5.9,��
2014/03/06,22:50,0.7,0.5,0.8,0.7,0.7,0.3,0.3,�쐼,1.2,��
2014/03/06,23:00,0.7,0.5,0.8,0.7,0.7,0.3,0.3,���k��,1.9,��
2014/03/06,23:10,0.8,0.5,0.8,0.7,0.7,0.3,0.3,���쐼,1.8,��
2014/03/06,23:20,0.7,0.5,0.8,0.7,0.7,0.3,0.3,���쐼,2.2,��
2014/03/06,23:30,0.7,0.5,0.8,0.7,0.7,0.3,0.3,���쐼,2.9,��
2014/03/06,23:40,0.7,0.5,0.8,0.7,0.7,0.3,0.3,��쐼,1.2,��
2014/03/06,23:50,0.7,0.5,0.8,0.7,0.7,0.3,0.3,���쐼,1.4,��
